Location: Cussy
(47.0410°N, 4.6412°E)
Time: 06:27:14
(UTC+00:00)

USA 238 DEB - Pass Details

Date: 30 November 2020
Orbit: 997 x 1215 km, 63.4° (Epoch: 11 January)

Event Time Altitude Azimuth Distance (km) Brightness Sun altitude
Rises 17:45:45 0° 189° (S) 3,712 6.8 -18.3°
Reaches altitude 10° 17:48:28 10° 181° (S) 2,780 6.0 -18.8°
Maximum altitude 17:54:23 38° 116° (ESE) 1,534 4.1 -19.8°
Enters shadow 17:55:56 33° 87° (E) 1,664 4.1 -20.0°
